Regional Weather Roundup
Issued by NWS

Home | Current Version | Previous Version | Graphics & Text | Print | Product List | Glossary On
Versions: 1 2 3 4 5 6 7 8 9 10 11 12 13 14 15 16 17 18 19 20 21 22 23 24 25 26 27 28 29 30 31 32 33 34 35 36 37 38 39 40 41 42 43 44 45 46 47 48 49 50
108
ASUS45 KPSR 230110
RWRAZ

ARIZONA HOURLY REGIONAL WEATHER ROUNDUP
NATIONAL WEATHER SERVICE PHOENIX AZ
600 PM MST TUE AUG 22 2017

NOTE: FAIR INDICATES FEW OR NO CLOUDS BELOW 12,000 FEET WITH NO
SIGNIFICANT WEATHER AND/OR OBSTRUCTIONS TO VISIBILITY.

AZZ001>003-036-230200-
NORTHWEST ARIZONA

CITY           SKY/WX    TMP DP  RH WIND       PRES   REMARKS
BULLHEAD CITY  SUNNY    106  45  12 SW5       29.81F HX 101
KINGMAN        SUNNY     93  46  19 NW8       30.05F
$$

AZZ004>008-015-016-018-230200-
NORTH CENTRAL ARIZONA

CITY           SKY/WX    TMP DP  RH WIND       PRES   REMARKS
GRAND CANYON   SUNNY     78  42  27 S8        30.31F
WILLIAMS       CLOUDY    77  41  27 SW6       30.32S
PRESCOTT       MOSUNNY   86  43  22 NW7       30.17F
FLAGSTAFF      SUNNY     74  41  30 W3        30.35S
PAYSON           N/A     88  43  20 SW6       30.19S
PAGE           SUNNY     89  43  20 NE8       30.10F
$$

AZZ009>014-017-230200-
NORTHEAST ARIZONA

CITY           SKY/WX    TMP DP  RH WIND       PRES   REMARKS
WINSLOW        PTSUNNY   89  40  17 VRB5      30.14F
SAINT JOHNS    MOSUNNY   83  44  25 CALM      30.20S
WINDOW ROCK    FAIR      82  34  17 SW7       30.29S
SHOW LOW       MOSUNNY   81  43  26 SW8G15    30.28S
$$

AZZ540-542>544-546-548-230200-
GREATER PHOENIX AREA

CITY           SKY/WX    TMP DP  RH WIND       PRES   REMARKS
PHOENIX        MOSUNNY  105  47  14 NW6       29.81F HX 101
BUCKEYE        SUNNY    104  46  14 S7        29.83F HX 100
GLENDALE       MOSUNNY  106  48  14 CALM      29.84F HX 102
LUKE AFB       SUNNY    105  51  16 W6        29.81F HX 102
DEER VALLEY    SUNNY    104  47  14 W9        29.84F HX 100
SCOTTSDALE     SUNNY    105  45  13 W8        29.86F HX 101
MESA-GATEWAY   MOSUNNY  102  52  18 SW5       29.85F HX 100
CHANDLER       MOSUNNY  104  48  15 S5        29.84F HX 100
$$

AZZ539-553-230200-
SOUTHWEST MARICOPA COUNTY AND PINAL COUNTY

CITY           SKY/WX    TMP DP  RH WIND       PRES   REMARKS
CASA GRANDE      N/A    N/A N/A N/A MISG        N/A
GILA BEND      MOSUNNY  106  47  13 NW13      29.80F HX 102
$$

AZZ503-504-507>509-230200-
SOUTHEAST ARIZONA

CITY           SKY/WX    TMP DP  RH WIND       PRES   REMARKS
TUCSON         MOSUNNY   95  57  28 S16       29.97R
DAVIS-MONTHAN  MOSUNNY   95  57  28 S13       29.96R
RYAN FIELD     MOSUNNY  100  52  19 W6        29.94
NOGALES        MOSUNNY   91  53  27 S9        30.08S
SIERRA VISTA   CLOUDY    88  52  29 SW10      30.15S THUNDER
DOUGLAS        SUNNY     90  50  25 W9        30.09S
SAFFORD        SUNNY     98  46  17 CALM      29.97F
$$

AZZ532-230200-
SOUTHWEST ARIZONA

CITY           SKY/WX    TMP DP  RH WIND       PRES   REMARKS
YUMA           SUNNY    106  54  17 S6        29.78F HX 104
$$

CAZ041-043-047-048-061-525>527-560>570-230200-
SOUTHERN CALIFORNIA

CITY           SKY/WX    TMP DP  RH WIND       PRES   REMARKS
DOWNTOWN L.A.  SUNNY     77  63  61 VRB7      29.92F
L.A. AIRPORT   MOSUNNY   72  65  78 W14       29.93F
SAN DIEGO      PTSUNNY   71  63  75 NW10      29.97S
BURBANK        SUNNY     80  61  52 S7        29.92S
ONTARIO        MOSUNNY   87  59  38 W15       29.92R
RIVERSIDE      SUNNY     87  62  43 W15       29.91S
PALM SPRINGS   SUNNY    106  52  16 SE12      29.82F HX 103
EL CENTRO NAS  MOSUNNY  107  50  15 E7        29.77F HX 104
IMPERIAL       PTSUNNY  107  57  19 SE10      29.75F HX 107
BLYTHE         SUNNY    106  50  15 S6        29.79F HX 103
NEEDLES        SUNNY    107  44  12 NE6       29.83F HX 102
$$

NVZ020-UTZ003-230200-
SOUTHERN NEVADA-UTAH

CITY           SKY/WX    TMP DP  RH WIND       PRES   REMARKS
LAS VEGAS      MOSUNNY   99  44  15 NE13      29.93F
SALT LAKE CITY LGT RAIN  83  46  27 S18G26    30.16R
$$

NMZ009-TXZ055-230200-
NEW MEXICO-WEST TEXAS

CITY           SKY/WX    TMP DP  RH WIND       PRES   REMARKS
ALBUQUERQUE    PTCLDY    84  52  33 W3        30.21S
EL PASO        MOCLDY    89  58  34 E8        30.09
$$


........................KEY........................
SKY/WX - SKY CONDITION/WEATHER
TMP    - TEMPERATURE IN FAHRENHEIT
DP     - DEW POINT IN FAHRENHEIT
RH     - RELATIVE HUMIDITY IN PERCENT
WIND   - DIRECTION AND SPEED IN MILES PER HOUR (MPH)
VRB    - VARIABLE WIND DIRECTION
PRES   - MEAN SEA LEVEL PRESSURE IN INCHES OF MERCURY
         F - FALLING PRESSURE   R - RISING PRESSURE
         S - STEADY PRESSURE
VSB    - VISIBILITY IN MILES
HX     - HEAT INDEX IN FAHRENHEIT
WCI    - WIND CHILL INDEX IN FAHRENHEIT
TC     - TEMPERATURE IN CELSIUS WHICH IS ALSO KNOWN AS
         TEMPERATURE IN CENTIGRADE
AFB    - AIR FORCE BASE
         LUKE AFB IS LUKE AIR FORCE BASE
         DAVIS-MONTHAN IS DAVIS-MONTHAN AIR FORCE BASE
NAS    - NAVAL AIR STATION
         EL CENTRO NAS IS EL CENTRO NAVAL AIR STATION
N/A    - NOT AVAILABLE





USA.gov is the U.S. government's official web portal to all federal, state and local government web resources and services.